Current weather by "City, St" or "zip code"  
 

Current Conditions: Chillicothe, Chillicothe Agri-Science Center, MO

NULL


11.0 F

Last Updated on Jan 19 2022, 9:52 pm CST
Humidity: 56%
Wind Speed: N 9.2 G 21.9 mph
Barometer 30.60 in
Dewpoint: -2.0 F
Visibility: NULL mi
Precip: --
Heat Index: NA
Wind Chill: -2 F
Current conditions at:

Chillicothe, Chillicothe Agri-Science Center, MO (KCDJ)

Lat: 39.81667 Lon: 93.58333

Local Radar Image active severe weather and emergency alerts image image weather storm and storm spotter reports image weather observation monitoring service image
Local
Radar
Active
Alerts
Storm Reports Obs
Monitoring

Sign-up For Email & Text Message Weather Alert Notification Services



Advertise Here

Observation History for Chillicothe, Chillicothe Agri-Science Center, MO


Time Wind
(mph)
Vis
(mi)
Weather Precip (in) Temperature (F) Relative
Humidity
Wind
Chill
(F)
Heat
Index
(F)
Pressure
Air Dwpt altimeter
(in)
sea level
(mb)
Rmks
9:52 pm CST N 9.2 G 21.9 NULL NULL -- 11.0 -2.0 56% -2 NA 30.60 1038.8
8:52 pm CST NW 10.4 G 24.2 NULL NULL -- 12.0 -0.9 56% -1 NA 30.58 1038.0
7:52 pm CST 6.9 NULL NULL -- 13.0 1.9 61% 3 NA 30.56 1037.2
6:52 pm CST N 9.2 G 18.4 NULL NULL -- 15.0 1.9 56% 3 NA 30.52 1035.8
5:52 pm CST N 8.1 G 19.6 NULL NULL -- 16.0 1.9 54% 5 NA 30.49 1034.5
4:52 pm CST N 8.1 G 18.4 NULL NULL -- 17.0 3.0 54% 7 NA 30.46 1033.3
3:52 pm CST N 8.1 G 20.7 NULL NULL -- 19.0 3.9 52% 9 NA 30.44 1032.3
2:52 pm CST N 11.5 G 17.3 NULL NULL -- 20.0 6.1 55% 8 NA 30.41 1031.3
1:52 pm CST N 10.4 G 20.7 NULL NULL -- 19.0 5.0 54% 7 NA 30.40 1031.0
12:52 pm CST N 10.4 G 19.6 NULL NULL -- 20.0 7.0 57% 9 NA 30.39 1030.7
11:52 am CST N 11.5 G 23.0 NULL NULL -- 20.0 7.0 57% 8 NA 30.38 1030.3
10:52 am CST N 9.2 G 18.4 NULL NULL -- 20.0 8.1 60% 9 NA 30.37 1029.9
9:52 am CST N 12.7 G 28.8 NULL NULL -- 20.0 7.0 57% 7 NA 30.34 1029.0
8:52 am CST N 12.7 G 24.2 NULL NULL -- 21.0 9.0 59% 9 NA 30.29 1027.4
7:52 am CST N 15.0 G 27.6 NULL NULL -- 22.0 9.0 57% 9 NA 30.25 1025.6
6:52 am CST N 15.0 G 29.9 NULL NULL -- 24.0 12.9 62% 11 NA 30.20 1024.1
5:52 am CST N 11.5 G 26.5 NULL NULL -- 27.0 17.1 66% 17 NA 30.14 1021.8
4:52 am CST N 10.4 G 23.0 NULL NULL -- 34.0 25.0 70% 26 NA 30.09 1019.7
3:52 am CST N 9.2 NULL NULL -- 36.0 28.9 76% 29 NA 30.04 1018.1
2:52 am CST N 9.2 G 17.3 NULL NULL -- 37.0 30.0 76% 30 NA 30.02 1017.5
1:52 am CST N 8.1 G 25.3 NULL NULL -- 38.0 30.0 73% 32 NA 29.98 1016.1
12:52 am CST N 9.2 NULL NULL -- 39.0 32.0 76% 33 NA 29.96 1015.2
11:52 pm CST N 11.5 G 21.9 NULL NULL -- 41.0 32.0 70% 34 NA 29.93 1014.1
10:52 pm CST N 5.8 NULL NULL -- 41.0 32.0 70% 37 NA 29.89 1012.9

Regional Weather Observation


Lamoni, Lamoni Municipal Airport, IA (KLWD)

Fair
5.0 F

Cameron Memorial Airport, MO (KEZZ)

Fair
9.0 F

Mosby Midwest National Air Center Airport, MO (KGPH)

Fair
14.0 F

St. Joseph, Rosecrans Memorial Airport, MO (KSTJ)

Fair
11.0 F

Marshall Memorial Municipal Airport, MO (KMHL)

Overcast
12.0 F

Maryville Northwest Missouri Regional Airport, MO (KEVU)

Fair
10.0 F

Advertise Here


Advertise Here